CW5066 Weather Reports


Display with metric or nautical units.
time (UTC)temp
F
wind
direction
speed
MPH
gust
MPH
rain 1hr
in
rain 24hr
in
rain mn
in
humidity
%
barometer
mb
20210620154515 65 23 9.0 15.0 0.00 0.00 0.00 30 1023.8
20210620153516 65 0 7.0 15.0 0.00 0.00 0.00 31 1023.9
20210620152516 65 315 9.0 20.0 0.00 0.00 0.00 30 1023.9
20210620151516 64 0 7.0 12.0 0.00 0.00 0.00 30 1023.4
20210620150516 64 315 8.0 16.0 0.00 0.00 0.00 31 1023.5
20210620145515 63 0 7.0 15.0 0.00 0.00 0.00 30 1023.5
20210620144515 63 338 8.0 13.0 0.00 0.00 0.00 32 1023.5
20210620143515 62 23 6.0 14.0 0.00 0.00 0.00 33 1023.0
20210620142516 61 0 4.0 9.0 0.00 0.00 0.00 38 1023.3
20210620141517 61 45 3.0 14.0 0.00 0.00 0.00 38 1023.2
20210620140515 60 135 4.0 8.0 0.00 0.00 0.00 43 1023.2
20210620135516 59 158 3.0 5.0 0.00 0.00 0.00 41 1023.2
20210620134515 59 135 3.0 7.0 0.00 0.00 0.00 41 1023.4
20210620133516 59 135 3.0 5.0 0.00 0.00 0.00 43 1022.8
20210620132516 60 113 3.0 7.0 0.00 0.00 0.00 42 1022.8
20210620131518 59 270 1.0 4.0 0.00 0.00 0.00 38 1023.2
20210620130518 59 270 1.0 4.0 0.00 0.00 0.00 36 1023.1
20210620125518 59 248 2.0 4.0 0.00 0.00 0.00 37 1023.1
20210620124517 59 270 1.0 3.0 0.00 0.00 0.00 36 1023.0
20210620123518 58 248 4.0 7.0 0.00 0.00 0.00 36 1022.3
20210620122518 58 270 2.0 6.0 0.00 0.00 0.00 37 1022.5
20210620121517 58 0.0 2.0 0.00 0.00 0.00 36 1022.3
20210620120517 58 293 2.0 3.0 0.00 0.00 0.00 36 1022.3
20210620115517 58 0.0 1.0 0.00 0.00 0.00 36 1022.3
20210620114518 58 293 2.0 3.0 0.00 0.00 0.00 36 1022.3
20210620113518 58 248 1.0 4.0 0.00 0.00 0.00 36 1021.5
20210620112518 59 293 3.0 7.0 0.00 0.00 0.00 35 1021.4
20210620111515 59 293 3.0 6.0 0.00 0.00 0.00 35 1020.2
20210620110518 59 315 4.0 8.0 0.00 0.00 0.00 35 1020.5
20210620105518 59 0 3.0 4.0 0.00 0.00 0.00 35 1021.1
20210620104518 58 0 3.0 7.0 0.00 0.00 0.00 35 1021.6
20210620103517 58 0 2.0 5.0 0.00 0.00 0.00 36 1022.0
20210620102517 58 338 3.0 6.0 0.00 0.00 0.00 37 1022.0
20210620101518 58 0 3.0 6.0 0.00 0.00 0.00 38 1022.0
20210620100517 58 338 4.0 8.0 0.00 0.00 0.00 37 1022.5
20210620095517 58 338 4.0 7.0 0.00 0.00 0.00 37 1023.3
20210620094518 58 0 3.0 7.0 0.00 0.00 0.00 38 1023.8
20210620093517 58 338 3.0 4.0 0.00 0.00 0.00 38 1023.7
20210620092517 58 0 3.0 5.0 0.00 0.00 0.00 38 1023.8
20210620091517 58 338 3.0 6.0 0.00 0.00 0.00 38 1023.9
20210620090518 58 23 3.0 5.0 0.00 0.00 0.00 38 1024.0
20210620085517 58 0 3.0 6.0 0.00 0.00 0.00 38 1024.1
20210620084517 58 338 4.0 6.0 0.00 0.00 0.00 37 1024.6
20210620083517 58 338 4.0 6.0 0.00 0.00 0.00 37 1024.1
20210620082518 58 338 4.0 8.0 0.00 0.00 0.00 37 1024.0
20210620081517 59 338 4.0 8.0 0.00 0.00 0.00 36 1024.1
20210620080517 59 270 3.0 10.0 0.00 0.00 0.00 36 1023.5
20210620075518 59 270 5.0 9.0 0.00 0.00 0.00 36 1023.0
20210620074517 59 338 4.0 9.0 0.00 0.00 0.00 36 1022.9
20210620073517 58 315 7.0 14.0 0.00 0.00 0.00 36 1022.2
20210620072518 59 338 9.0 15.0 0.00 0.00 0.00 37 1021.5
20210620071518 60 338 8.0 14.0 0.00 0.00 0.00 35 1022.9
20210620070517 60 338 9.0 14.0 0.00 0.00 0.00 35 1023.0
20210620065517 61 0 10.0 15.0 0.00 0.00 0.00 33 1023.8
20210620064517 61 0 5.0 9.0 0.00 0.00 0.00 34 1025.3
20210620063517 61 23 8.0 14.0 0.00 0.00 0.00 34 1025.9
20210620062517 61 0 7.0 18.0 0.00 0.00 0.00 34 1025.8
20210620061517 61 338 7.0 14.0 0.00 0.00 0.00 34 1025.7
20210620060518 61 338 5.0 11.0 0.00 0.00 0.00 34 1025.8
20210620055516 61 315 5.0 12.0 0.00 0.00 0.00 34 1025.8
20210620054516 61 315 4.0 10.0 0.00 0.00 0.00 34 1025.2
20210620053516 61 270 3.0 9.0 0.00 0.00 0.00 34 1025.0
20210620052516 62 0 4.0 9.0 0.00 0.00 0.00 34 1025.5
20210620051517 62 338 5.0 15.0 0.00 0.00 0.00 34 1025.1
20210620050517 62 45 8.0 21.0 0.00 0.00 0.00 34 1025.1
20210620045516 62 23 9.0 22.0 0.00 0.00 0.00 34 1025.1
20210620044516 62 23 9.0 20.0 0.00 0.00 0.00 34 1025.1
20210620043516 62 23 12.0 28.0 0.00 0.00 0.00 34 1024.7
20210620042517 61 23 11.0 26.0 0.00 0.00 0.00 35 1024.1
20210620041517 61 23 11.0 21.0 0.00 0.00 0.00 35 1024.4
20210620040517 61 45 10.0 19.0 0.00 0.00 0.00 35 1024.8
20210620035516 61 0 11.0 27.0 0.00 0.00 0.00 35 1024.2
20210620034517 61 45 11.0 21.0 0.00 0.00 0.00 36 1023.5
20210620033517 60 23 11.0 21.0 0.00 0.00 0.00 37 1023.2
20210620032516 60 23 10.0 21.0 0.00 0.00 0.00 38 1022.7
20210620031517 60 23 8.0 15.0 0.00 0.00 0.00 40 1022.1
20210620030517 59 23 8.0 17.0 0.00 0.00 0.00 42 1022.4
20210620025517 59 0 5.0 13.0 0.00 0.00 0.00 43 1022.2
20210620024516 59 0 7.0 16.0 0.00 0.00 0.00 43 1022.5
20210620023517 59 0 11.0 21.0 0.00 0.00 0.00 43 1022.2
20210620022516 59 0 7.0 14.0 0.00 0.00 0.00 44 1022.5
20210620021517 60 45 7.0 16.0 0.00 0.00 0.00 43 1023.0
20210620020517 61 90 6.0 15.0 0.00 0.00 0.00 42 1023.8
20210620015516 61 23 2.0 6.0 0.00 0.00 0.00 44 1023.3
20210620014517 61 68 2.0 6.0 0.00 0.00 0.00 45 1023.2
20210620013516 60 0 6.0 16.0 0.00 0.00 0.00 47 1023.1
20210620012516 60 0 8.0 17.0 0.00 0.00 0.00 49 1023.3
20210620011517 61 45 10.0 24.0 0.00 0.00 0.00 47 1023.8
20210620010517 61 23 11.0 26.0 0.00 0.00 0.00 46 1023.4
20210620005517 62 45 17.0 35.0 0.00 0.00 0.00 44 1023.9
20210620004516 62 45 8.0 23.0 0.00 0.00 0.00 43 1023.5
20210620003516 61 23 7.0 18.0 0.00 0.00 0.00 45 1022.6
20210620002516 61 23 4.0 9.0 0.00 0.00 0.00 50 1022.7
20210620001517 61 338 5.0 10.0 0.00 0.00 0.00 50 1022.5
20210620000517 62 315 6.0 11.0 0.00 0.00 0.00 49 1022.9
20210619235516 61 315 6.0 13.0 0.00 0.00 0.00 49 1023.0
20210619234515 60 338 7.0 14.0 0.00 0.00 0.00 52 1022.9
20210619233516 58 0 11.0 17.0 0.00 0.00 0.00 55 1022.5
20210619232517 57 315 8.0 14.0 0.00 0.00 0.00 63 1022.5
20210619231516 54 293 14.0 25.0 0.00 0.00 0.00 63 1022.2
20210619230517 56 338 17.0 31.0 0.00 0.00 0.00 57 1023.2
20210619225516 57 338 19.0 35.0 0.00 0.00 0.00 52 1023.7
20210619224517 61 23 10.0 26.0 0.00 0.00 0.00 45 1024.5
20210619223516 63 23 10.0 26.0 0.00 0.00 0.00 40 1024.2
20210619222517 63 68 8.0 16.0 0.00 0.00 0.00 41 1023.5
20210619221515 63 68 10.0 19.0 0.00 0.00 0.00 41 1023.4
20210619220516 65 23 4.0 11.0 0.00 0.00 0.00 42 1024.4
20210619215517 67 45 8.0 15.0 0.00 0.00 0.00 32 1024.3
20210619214515 69 68 6.0 13.0 0.00 0.00 0.00 31 1025.0
20210619213517 70 68 6.0 12.0 0.00 0.00 0.00 31 1025.4
20210619212516 69 68 7.0 15.0 0.00 0.00 0.00 31 1025.1
20210619211516 69 90 9.0 17.0 0.00 0.00 0.00 32 1025.2
20210619210516 69 45 4.0 13.0 0.00 0.00 0.00 32 1025.2
20210619205515 69 90 6.0 11.0 0.00 0.00 0.00 35 1025.6
20210619204516 70 68 5.0 11.0 0.00 0.00 0.00 34 1025.5
20210619203517 69 45 4.0 12.0 0.00 0.00 0.00 35 1024.7
20210619202516 69 68 6.0 17.0 0.00 0.00 0.00 35 1024.8
20210619201516 68 23 2.0 7.0 0.00 0.00 0.00 39 1025.1
20210619200516 66 315 6.0 11.0 0.00 0.00 0.00 37 1024.3
20210619195516 64 315 5.0 11.0 0.00 0.00 0.00 44 1024.2
20210619194516 63 0 4.0 9.0 0.00 0.00 0.00 43 1024.6
20210619193515 62 23 3.0 6.0 0.00 0.00 0.00 42 1024.1
20210619192515 61 338 7.0 19.0 0.00 0.00 0.00 43 1023.9
20210619191515 63 338 14.0 22.0 0.00 0.00 0.00 42 1025.2
20210619190517 63 338 13.0 21.0 0.00 0.00 0.00 41 1024.5
20210619185516 65 45 12.0 24.0 0.00 0.00 0.00 40 1025.0
20210619184517 67 0 9.0 18.0 0.00 0.00 0.00 37 1025.2
20210619183516 69 0 10.0 17.0 0.00 0.00 0.00 33 1026.2
20210619182517 69 45 9.0 22.0 0.00 0.00 0.00 35 1025.8
20210619181515 69 23 10.0 19.0 0.00 0.00 0.00 34 1025.6
20210619180516 70 68 7.0 14.0 0.00 0.00 0.00 35 1026.4
20210619175517 69 45 5.0 15.0 0.00 0.00 0.00 35 1025.8
20210619174517 68 45 10.0 23.0 0.00 0.00 0.00 37 1026.0
20210619173516 68 23 11.0 18.0 0.00 0.00 0.00 36 1026.1
20210619172516 68 45 11.0 24.0 0.00 0.00 0.00 33 1025.8
20210619171516 67 45 10.0 22.0 0.00 0.00 0.00 35 1026.0
20210619170516 67 0 9.0 16.0 0.00 0.00 0.00 34 1025.9
20210619165516 67 0 12.0 20.0 0.00 0.00 0.00 33 1025.9
20210619164516 67 23 10.0 22.0 0.00 0.00 0.00 33 1026.0
20210619163515 67 0 10.0 21.0 0.00 0.00 0.00 34 1025.8
20210619162516 66 23 9.0 18.0 0.00 0.00 0.00 34 1025.8
20210619161516 66 23 12.0 24.0 0.00 0.00 0.00 34 1025.9
20210619160516 67 23 10.0 22.0 0.00 0.00 0.00 33 1026.5
20210619155516 67 0 9.0 19.0 0.00 0.00 0.00 34 1026.4